Content
SEND FEEDBACK

Daily
Averages
Monthly
Summary
United States of America

EGG HARBOR, WISCONSIN


Home > North America > United States > Wisconsin
Elevation: 685 feet     Latitude: 44 52N     Longitude: 087 19W

WEATHER
 
SELECT A DAY
Number of Records: 463,222;   Date Range: 1/1/95 - 11/27/14
 
SHARE

PRINT THIS DATA

[ ← Previous Day ]
WEATHER ALMANAC - JANUARY 31, 2013
[ Next Day → ]
[ °C ]   °F
Weather ElementAverageHighLow
Temperature12.5 °F15.8 °F (12:35 am)6.8 °F (10:55 pm)
Dewpoint4.7 °F8.6 °F (4:35 pm)-0.4 °F (10:15 pm)
Humidity71.4 %85 % (7:15 am)58 % (2:15 pm)
Barometer29.70 in29.97 in (11:35 pm)29.44 in (12:35 am)
Wind Speed12.9 mph20.7 mph (12:35 am)
Wind Gust27.6 mph (12:35 am)
Weather ElementAverage
Visibility8.8 mi
Wind DirectionWNW (296.4 °)

Weather ElementTotal
Precipitation---
Heating Degree Days53.7 (Base 65)
Averaged from 69 records on January 31, 2013
WEATHER CONDITIONS BREAKOUT
WIND DIRECTION BREAKOUT
WEATHER BY HOUR - JANUARY 31, 2013
[ °C ]   °F
Local TimeTemperatureDewpointHumidityBarometerVisibilityWind DirectionWind SpeedGust SpeedPrecipitationEventsConditions
12:35 AM15.8 °F6.8 °F68 %29.44 in6.0 miWNW (300°)20.7 mph27.6 mphOvercast
12:55 AM14.0 °F6.8 °F73 %29.45 in6.0 miWNW (300°)18.4 mph26.5 mphOvercast
1:15 AM14.0 °F6.8 °F73 %29.46 in7.0 miWNW (300°)17.3 mph26.5 mphOvercast
1:35 AM14.0 °F6.8 °F73 %29.48 in6.0 miWNW (300°)17.3 mphOvercast
1:55 AM12.2 °F6.8 °F79 %29.49 in10.0 miWNW (290°)16.1 mph23.0 mphOvercast
2:15 AM12.2 °F5.0 °F73 %29.50 in10.0 miWNW (300°)17.3 mph24.2 mphOvercast
2:35 AM12.2 °F5.0 °F73 %29.50 in10.0 miWNW (300°)17.3 mph24.2 mphOvercast
2:55 AM12.2 °F5.0 °F73 %29.50 in10.0 miWNW (300°)15.0 mph25.3 mphOvercast
3:15 AM12.2 °F5.0 °F73 %29.51 in10.0 miWNW (300°)16.1 mph24.2 mphOvercast
3:35 AM12.2 °F6.8 °F79 %29.51 in10.0 miWNW (300°)11.5 mphOvercast
3:55 AM12.2 °F6.8 °F79 %29.52 in10.0 miWNW (290°)11.5 mph18.4 mphOvercast
4:15 AM12.2 °F6.8 °F79 %29.52 in10.0 miWNW (290°)12.7 mphOvercast
4:35 AM12.2 °F6.8 °F79 %29.53 in10.0 miWNW (290°)16.1 mph20.7 mphOvercast
4:55 AM12.2 °F5.0 °F73 %29.54 in10.0 miWNW (300°)13.8 mph23.0 mphOvercast
5:15 AM12.2 °F3.2 °F67 %29.54 in10.0 miWNW (290°)15.0 mph21.9 mphOvercast
5:35 AM12.2 °F6.8 °F79 %29.55 in10.0 miWNW (290°)13.8 mphOvercast
5:55 AM12.2 °F6.8 °F79 %29.56 in10.0 miWNW (290°)13.8 mphOvercast
6:15 AM12.2 °F3.2 °F67 %29.57 in10.0 miWNW (300°)11.5 mphOvercast
6:35 AM12.2 °F3.2 °F67 %29.57 in10.0 miWNW (290°)11.5 mphOvercast
6:55 AM10.4 °F5.0 °F79 %29.58 in10.0 miWest (280°)10.4 mphOvercast
7:15 AM10.4 °F6.8 °F85 %29.59 in10.0 miWest (280°)9.2 mphScattered Clouds
7:35 AM10.4 °F5.0 °F79 %29.60 in10.0 miWNW (290°)10.4 mphPartly Cloudy
7:55 AM10.4 °F5.0 °F79 %29.61 in10.0 miWest (280°)10.4 mphPartly Cloudy
8:15 AM10.4 °F3.2 °F73 %29.62 in10.0 miWest (280°)10.4 mphMostly Cloudy
8:35 AM10.4 °F3.2 °F73 %29.63 in7.0 miWest (280°)11.5 mph20.7 mphOvercast
8:55 AM10.4 °F3.2 °F73 %29.65 in10.0 miWest (280°)13.8 mphOvercast
9:15 AM12.2 °F3.2 °F67 %29.66 in10.0 miWest (280°)13.8 mph21.9 mphOvercast
9:35 AM12.2 °F3.2 °F67 %29.67 in10.0 miWest (280°)15.0 mph18.4 mphMostly Cloudy
9:55 AM12.2 °F3.2 °F67 %29.68 in10.0 miWNW (290°)13.8 mph19.6 mphOvercast
10:15 AM12.2 °F5.0 °F73 %29.69 in9.0 miWNW (290°)15.0 mph18.4 mphOvercast
10:35 AM14.0 °F5.0 °F67 %29.70 in6.0 miWNW (290°)16.1 mph20.7 mphOvercast
10:55 AM14.0 °F6.8 °F73 %29.70 in2.5 miWNW (290°)12.7 mphOvercast
11:15 AM14.0 °F5.0 °F67 %29.70 in7.0 miWNW (300°)11.5 mphOvercast
11:35 AM14.0 °F5.0 °F67 %29.70 in9.0 miWest (270°)9.2 mph18.4 mphOvercast
11:55 AM14.0 °F5.0 °F67 %29.70 in10.0 miWest (280°)11.5 mphOvercast
12:15 PM15.8 °F6.8 °F68 %29.70 in10.0 miWNW (290°)13.8 mphOvercast
12:35 PM14.0 °F6.8 °F73 %29.70 in10.0 miWest (270°)11.5 mph19.6 mphOvercast
12:55 PM15.8 °F5.0 °F62 %29.71 in7.0 miWest (270°)13.8 mph17.3 mphOvercast
1:15 PM15.8 °F6.8 °F68 %29.72 in10.0 miWest (280°)10.4 mphOvercast
1:35 PM15.8 °F5.0 °F62 %29.72 in10.0 miWNW (290°)12.7 mphOvercast
1:55 PM15.8 °F6.8 °F68 %29.73 in10.0 miWNW (290°)10.4 mphOvercast
2:15 PM15.8 °F3.2 °F58 %29.73 in10.0 miWNW (290°)11.5 mphOvercast
2:35 PM15.8 °F5.0 °F62 %29.74 in10.0 miWNW (300°)9.2 mphOvercast
2:55 PM15.8 °F3.2 °F58 %29.75 in10.0 miWNW (300°)9.2 mphOvercast
3:15 PM15.8 °F5.0 °F62 %29.76 in10.0 miNW (310°)11.5 mphOvercast
3:35 PM15.8 °F5.0 °F62 %29.76 in10.0 miWNW (300°)9.2 mph16.1 mphOvercast
3:55 PM15.8 °F5.0 °F62 %29.77 in10.0 miNW (310°)9.2 mphOvercast
4:15 PM15.8 °F6.8 °F68 %29.78 in6.0 miNW (310°)11.5 mphOvercast
4:35 PM15.8 °F8.6 °F73 %29.79 in2.5 miWNW (300°)6.9 mphOvercast
4:55 PM14.0 °F8.6 °F79 %29.80 in1.0 miWNW (300°)10.4 mph16.1 mphOvercast
5:15 PM14.0 °F8.6 °F79 %29.81 in1.2 miNNW (330°)11.5 mphOvercast
5:35 PM12.2 °F8.6 °F85 %29.82 in2.0 miNNW (330°)12.7 mphOvercast
5:55 PM14.0 °F6.8 °F73 %29.83 in9.0 miNNW (340°)15.0 mphMostly Cloudy
6:15 PM12.2 °F6.8 °F79 %29.84 in10.0 miNNW (340°)12.7 mphOvercast
6:35 PM12.2 °F5.0 °F73 %29.85 in10.0 miNNW (340°)13.8 mphMostly Cloudy
7:15 PM12.2 °F3.2 °F67 %29.87 in10.0 miNW (320°)12.7 mphScattered Clouds
7:35 PM12.2 °F3.2 °F67 %29.88 in10.0 miNW (320°)12.7 mphPartly Cloudy
7:55 PM10.4 °F1.4 °F67 %29.89 in10.0 miNW (320°)11.5 mph17.3 mphScattered Clouds
8:15 PM10.4 °F1.4 °F67 %29.90 in10.0 miNW (310°)12.7 mphMostly Cloudy
8:35 PM10.4 °F1.4 °F67 %29.91 in10.0 miNW (310°)13.8 mphOvercast
8:55 PM10.4 °F5.0 °F79 %29.92 in10.0 miWNW (300°)13.8 mph19.6 mphOvercast
9:15 PM10.4 °F3.2 °F73 %29.93 in5.0 miWNW (300°)15.0 mph23.0 mphOvercast
9:35 PM8.6 °F3.2 °F79 %29.93 in7.0 miWNW (290°)13.8 mph18.4 mphOvercast
9:55 PM8.6 °F1.4 °F73 %29.94 in9.0 miWNW (290°)11.5 mph20.7 mphMostly Cloudy
10:15 PM8.6 °F-0.4 °F67 %29.94 in10.0 miWNW (290°)11.5 mphMostly Cloudy
10:35 PM8.6 °F-0.4 °F67 %29.95 in10.0 miWNW (290°)12.7 mph18.4 mphMostly Cloudy
10:55 PM6.8 °F-0.4 °F72 %29.95 in10.0 miWNW (290°)10.4 mph17.3 mphMostly Cloudy
11:15 PM6.8 °F-0.4 °F72 %29.96 in10.0 miWNW (290°)16.1 mph20.7 mphOvercast
11:35 PM6.8 °F-0.4 °F72 %29.97 in10.0 miWest (280°)13.8 mphMostly Cloudy
Hourly data recorded from KSUE, located miles away from Egg Harbor, Wisconsin







STORIES FROM OUR PARTNERS